Regional Weather Roundup
Issued by NWS

Home | Current Version | Previous Version | Graphics & Text | Print | Product List | Glossary On
Versions: 1 2 3 4 5 6 7 8 9 10 11 12 13 14 15 16 17 18 19 20 21 22 23 24 25 26 27 28 29 30 31 32 33 34 35 36 37 38 39 40 41 42 43 44 45 46 47 48 49 50
000
ASUS43 KTOP 062008
RWRKS

WEATHER ROUNDUP FOR KANSAS
NATIONAL WEATHER SERVICE GOODLAND KS
300 PM CDT FRI MAY 06 2016

NOTE:  "FAIR" INDICATES FEW OR NO CLOUDS BELOW 12,000 FEET WITH NO
SIGNIFICANT WEATHER AND/OR OBSTRUCTIONS TO VISIBILITY.

KSZ001>006-013>018-027>032-041>047-062100-
NORTHWEST KANSAS

CITY           SKY/WX    TMP DP  RH WIND       PRES   REMARKS
GOODLAND       SUNNY     86  33  15 S21G31    29.91F
HAYS           MOSUNNY   84  50  30 S23G29    29.95F
HILL CITY      MOSUNNY   86  48  26 S17G28    29.93F
RUSSELL        PTSUNNY   83  49  30 S26G36    29.95F
$$

KSZ061>065-074>080-084>089-062100-
SOUTHWEST KANSAS

CITY           SKY/WX    TMP DP  RH WIND       PRES   REMARKS
DODGE CITY     SUNNY     80  50  34 S22G30    30.00F
ELKHART          N/A     82  40  22 S22         N/A
GARDEN CITY    SUNNY     82  45  27 S20       29.97F
GREAT BEND     CLOUDY    82  52  34 S22G31    29.96F
LIBERAL        SUNNY     82  50  32 S15G23    30.00F
PRATT          SUNNY     80  47  31 S21G29    30.01F
$$

KSZ066>073-081>083-090>101-062100-
SOUTHEAST KANSAS

CITY           SKY/WX    TMP DP  RH WIND       PRES   REMARKS
CHANUTE        SUNNY     79  50  36 S10       30.06F
COFFEYVILLE    SUNNY     79  49  34 SE7       30.06F
HUTCHINSON     SUNNY     83  48  29 S18G26    30.01F
MEDICINE LODGE   N/A     84  47  27 S16       30.00F
NEWTON         SUNNY     81  45  28 S17       30.06S
PARSONS        SUNNY     79  48  33 S7        30.07F
WICHITA INTL   MOSUNNY   82  48  30 S17       30.02F
WICHITA JABRA  SUNNY     80  47  31 S14       30.03F
WICHITA MCCONL SUNNY     80  46  29 SW14      30.03F
WINFIELD       SUNNY     82  49  31 S12       30.42R
$$

KSZ007>012-019>026-033>040-048>060-102>105-062100-
NORTHEAST KANSAS

CITY           SKY/WX    TMP DP  RH WIND       PRES   REMARKS
CONCORDIA      SUNNY     83  46  27 S21G28    29.97F
EMPORIA        SUNNY     81  48  31 S13       30.02F
LAWRENCE       SUNNY     82  51  34 S12       30.02F
MANHATTAN      MOSUNNY   85  45  24 S12G22    29.98F
MARYSVILLE     SUNNY     82  45  26 S15       29.97F
OLATHE IND     SUNNY     80  49  33 S12       30.04F
OLATHE EXE     SUNNY     78  50  37 S12       30.04F
SALINA         SUNNY     84  45  25 S18G25    29.99F
TOPEKA BILLARD SUNNY     82  46  28 S12       30.01F
TOPEKA FORBES  SUNNY     84  49  29 S13       30.01F
$$



USA.gov is the U.S. government's official web portal to all federal, state and local government web resources and services.